Location: Vulcan
(50.4000°N, 113.2500°W)
Time: 18:12:01
(UTC-07:00)

Transit 2A - All Passes

Search period start: 22 November 2019 00:00
Search period end: 02 December 2019 00:00
Orbit: 602 x 957 km, 66.7° (Epoch: 22 November)

Date Brightness Start Highest point End Pass type
(mag) Time Alt. Az. Time Alt. Az. Time Alt. Az.
22 Nov - 11:36:09 10° S 11:40:49 42° ESE 11:45:08 10° NE daylight
22 Nov - 13:19:35 10° WSW 13:24:01 36° NW 13:28:11 10° NNE daylight
22 Nov - 15:06:28 10° NW 15:08:27 13° NNW 15:10:24 10° N daylight
22 Nov - 16:53:07 10° N 16:53:41 10° N 16:54:15 10° NNE daylight
22 Nov - 18:35:01 10° NNW 18:38:31 23° NE 18:42:02 10° E visible
22 Nov - 20:17:44 10° NW 20:22:05 73° WSW 20:26:33 10° SSE visible
23 Nov - 11:02:31 10° S 11:06:48 30° ESE 11:10:47 10° NE daylight
23 Nov - 12:45:07 10° WSW 12:49:47 47° NW 12:54:09 10° NNE daylight
23 Nov - 14:31:25 10° WNW 14:34:00 15° NNW 14:36:29 10° N daylight
23 Nov - 18:01:02 10° NNW 18:04:09 18° NNE 18:07:15 10° ENE visible
23 Nov - 19:43:36 10° NW 19:47:58 79° NE 19:52:27 10° SE visible
23 Nov - 21:28:01 10° WNW 21:30:32 15° WSW 21:33:06 10° SW visible
24 Nov - 10:29:09 10° SSE 10:32:49 21° ESE 10:36:17 10° ENE daylight
24 Nov - 12:10:46 10° SW 12:15:36 65° NW 12:20:06 10° NNE daylight
24 Nov - 13:56:28 10° WNW 13:59:33 17° NNW 14:02:33 10° NNE daylight
24 Nov - 17:27:06 10° NNW 17:29:44 15° NNE 17:32:22 10° ENE visible
24 Nov - 19:09:30 10° NNW 19:13:49 56° NE 19:18:12 10° SE visible
24 Nov - 20:53:14 10° WNW 20:56:36 22° WSW 21:00:04 10° SSW visible
25 Nov - 09:56:13 10° SE 09:58:53 15° ESE 10:01:27 10° ENE daylight
25 Nov - 11:36:33 10° SW 11:41:28 90° NW 11:46:00 10° NE daylight
25 Nov - 13:21:37 10° W 13:25:10 21° NNW 13:28:35 10° NNE daylight
25 Nov - 16:53:11 10° N 16:55:17 13° NNE 16:57:21 10° NE daylight
25 Nov - 18:35:28 10° NNW 18:39:36 40° NE 18:43:49 10° ESE visible
25 Nov - 20:18:46 10° NW 20:22:38 31° WSW 20:26:37 10° S visible
26 Nov - 11:02:30 10° SSW 11:07:21 65° ESE 11:11:51 10° NE daylight
26 Nov - 12:46:52 10° W 12:50:50 26° NW 12:54:37 10° NNE daylight
26 Nov - 14:34:25 10° NNW 14:35:32 11° NNW 14:36:39 10° N daylight
26 Nov - 16:19:19 10° N 16:20:47 11° NNE 16:22:16 10° NE daylight
26 Nov - 18:01:27 10° NNW 18:05:20 31° NE 18:09:18 10° ESE visible
26 Nov - 19:44:27 10° NW 19:48:37 46° WSW 19:52:56 10° SSE visible
27 Nov - 10:28:38 10° S 10:33:17 45° ESE 10:37:37 10° NE daylight
27 Nov - 12:12:14 10° WSW 12:16:33 33° NW 12:20:37 10° NNE daylight
27 Nov - 13:59:14 10° NW 14:01:01 12° NNW 14:02:48 10° N daylight
27 Nov - 15:45:33 10° N 15:46:16 10° N 15:46:59 10° NNE daylight
27 Nov - 17:27:27 10° NNW 17:31:02 24° NE 17:34:39 10° E visible
27 Nov - 19:10:13 10° NW 19:14:33 67° WSW 19:19:02 10° SSE visible
28 Nov - 09:54:57 10° S 09:59:16 32° ESE 10:03:18 10° NE daylight
28 Nov - 11:37:44 10° WSW 11:42:18 44° NW 11:46:36 10° NNE daylight
28 Nov - 13:24:10 10° NW 13:26:33 14° NNW 13:28:53 10° N daylight
28 Nov - 16:53:30 10° NNW 16:56:41 19° NNE 16:59:53 10° ENE daylight
28 Nov - 18:36:04 10° NW 18:40:27 85° NE 18:44:58 10° SE visible
28 Nov - 20:20:40 10° WNW 20:22:59 14° WSW 20:25:19 10° SW visible
29 Nov - 09:21:32 10° SSE 09:25:17 22° ESE 09:28:49 10° ENE daylight
29 Nov - 11:03:21 10° SW 11:08:06 61° NW 11:12:32 10° NNE daylight
29 Nov - 12:49:11 10° WNW 12:52:07 16° NNW 12:54:57 10° NNE daylight
29 Nov - 16:19:33 10° NNW 16:22:16 16° NNE 16:25:01 10° ENE daylight
29 Nov - 18:01:59 10° NNW 18:06:19 60° NE 18:10:45 10° SE visible
29 Nov - 19:45:48 10° WNW 19:49:03 20° WSW 19:52:24 10° SSW visible
30 Nov - 08:48:30 10° SE 08:51:20 16° ESE 08:54:04 10° ENE daylight
30 Nov - 10:29:07 10° SW 10:33:57 84° NW 10:38:27 10° NE daylight
30 Nov - 12:14:18 10° W 12:17:43 20° NNW 12:21:01 10° NNE daylight
30 Nov - 15:45:37 10° N 15:47:50 13° NNE 15:50:02 10° NE daylight
30 Nov - 17:27:55 10° NNW 17:32:06 43° NE 17:36:23 10° ESE visible
30 Nov - 19:11:17 10° NW 19:15:05 29° WSW 19:19:02 10° S visible
01 Dec - 08:16:36 10° ESE 08:17:27 10° ESE 08:18:17 10° E daylight
01 Dec - 09:55:02 10° SSW 09:59:50 70° ESE 10:04:19 10° NE daylight
01 Dec - 11:39:32 10° W 11:43:22 25° NW 11:47:02 10° NNE daylight
01 Dec - 13:27:15 10° NNW 13:28:06 10° N 13:28:58 10° N daylight
01 Dec - 15:11:45 10° N 15:13:21 12° NNE 15:14:58 10° NE daylight
01 Dec - 16:53:54 10° NNW 16:57:51 32° NE 17:01:54 10° ESE daylight
01 Dec - 18:36:56 10° NW 18:41:05 42° WSW 18:45:23 10° S visible
